Location: Nairn
(57.5833°N, 3.8667°W)
Time: 23:07:49
(UTC+00:00)

Tiros 1 - Pass Details

Date: 27 September 2022
Orbit: 629 x 662 km, 48.4° (Epoch: 09 December)

Event Time Altitude Azimuth Distance (km) Brightness Sun altitude
Exits shadow 04:07:30 22° 203° (SSW) 1,415 8.5 -16.8°
Maximum altitude 04:09:00 26° 174° (S) 1,269 8.5 -16.7°
Drops below altitude 10° 04:12:56 10° 117° (ESE) 2,046 10.3 -16.2°
Sets 04:15:32 0° 105° (ESE) 2,950 11.4 -15.9°
